Time,TemperatureF,DewpointF,PressureIn,WindDirection,WindDirectionDegrees,WindSpeedMPH,WindSpeedGustMPH,Humidity,HourlyPrecipIn,Conditions,Clouds,dailyrainin,SoftwareType,DateUTC
2013-05-15 00:01:00,73.6,56.4,29.49,East,90,2.8,6.9,55,0.00,CLR,,0.00,WeatherDisplay:10.37,2013-05-15 04:01:00,
2013-05-15 00:06:00,73.6,56.4,29.48,East,90,2.8,5.8,55,0.00,CLR,,0.00,WeatherDisplay:10.37,2013-05-15 04:06:00,
2013-05-15 00:11:00,73.9,56.8,29.48,East,90,5.7,10.4,55,0.00,CLR,,0.00,WeatherDisplay:10.37,2013-05-15 04:11:00,
2013-05-15 00:16:00,73.9,57.3,29.48,ESE,112,6.8,9.2,56,0.00,CLR,,0.00,WeatherDisplay:10.37,2013-05-15 04:16:00,
2013-05-15 00:21:00,73.8,57.6,29.47,ESE,112,5.7,13.8,57,0.00,CLR,,0.00,WeatherDisplay:10.37,2013-05-15 04:21:00,
2013-05-15 00:26:00,73.8,58.1,29.46,SE,135,8.8,10.5,58,0.00,CLR,,0.00,WeatherDisplay:10.37,2013-05-15 04:26:00,
2013-05-15 00:31:00,73.6,58.8,29.45,SE,135,4.8,9.2,60,0.00,CLR,,0.00,WeatherDisplay:10.37,2013-05-15 04:31:00,
2013-05-15 00:36:00,73.8,60.4,29.45,SE,135,6.8,10.4,63,0.00,CLR,,0.00,WeatherDisplay:10.37,2013-05-15 04:36:00,
2013-05-15 00:41:00,74.1,61.2,29.45,SE,135,4.8,10.4,64,0.00,CLR,,0.00,WeatherDisplay:10.37,2013-05-15 04:41:00,
2013-05-15 00:46:00,74.5,61.9,29.45,SE,135,5.7,8.1,65,0.00,CLR,,0.00,WeatherDisplay:10.37,2013-05-15 04:46:00,
2013-05-15 00:51:00,75.0,62.0,29.45,SE,135,7.7,13.8,64,0.00,CLR,,0.00,WeatherDisplay:10.37,2013-05-15 04:51:00,
2013-05-15 00:56:00,75.4,61.9,29.45,SE,135,7.7,13.8,63,0.00,CLR,,0.00,WeatherDisplay:10.37,2013-05-15 04:56:00,
2013-05-15 01:01:00,75.6,62.1,29.45,SE,135,12.5,17.3,63,0.00,CLR,,0.00,WeatherDisplay:10.37,2013-05-15 05:01:00,
2013-05-15 01:06:00,75.7,62.2,29.43,SE,135,8.8,12.7,63,0.00,CLR,,0.00,WeatherDisplay:10.37,2013-05-15 05:06:00,
2013-05-15 01:11:00,75.9,62.4,29.44,SE,135,7.7,12.7,63,0.00,CLR,,0.00,WeatherDisplay:10.37,2013-05-15 05:11:00,
2013-05-15 01:16:00,76.3,61.8,29.43,SE,135,9.7,15.0,61,0.00,CLR,,0.00,WeatherDisplay:10.37,2013-05-15 05:16:00,
2013-05-15 01:21:00,76.8,61.9,29.43,South,180,9.7,21.9,60,0.00,CLR,,0.00,WeatherDisplay:10.37,2013-05-15 05:21:00,
2013-05-15 01:26:00,77.5,61.1,29.43,South,180,7.4,13.8,57,0.00,CLR,,0.00,WeatherDisplay:10.37,2013-05-15 05:26:00,
2013-05-15 01:31:00,78.1,61.1,29.41,SE,135,16.5,16.5,56,0.00,CLR,,0.00,WeatherDisplay:10.37,2013-05-15 05:31:00,
2013-05-15 01:36:00,78.3,60.2,29.42,SE,135,16.5,27.6,54,0.00,CLR,,0.00,WeatherDisplay:10.37,2013-05-15 05:36:00,
2013-05-15 01:41:00,78.8,60.2,29.42,SE,135,11.7,31.1,53,0.00,CLR,,0.00,WeatherDisplay:10.37,2013-05-15 05:41:00,
2013-05-15 01:46:00,78.8,60.2,29.42,South,180,8.8,25.3,53,0.00,CLR,,0.00,WeatherDisplay:10.37,2013-05-15 05:46:00,
2013-05-15 01:51:00,78.8,60.2,29.43,East,90,15.4,21.9,53,0.00,CLR,,0.00,WeatherDisplay:10.37,2013-05-15 05:51:00,
2013-05-15 01:56:00,78.6,60.1,29.43,South,180,12.8,12.8,53,0.00,CLR,,0.00,WeatherDisplay:10.37,2013-05-15 05:56:00,
2013-05-15 02:01:00,78.8,59.7,29.43,SE,135,14.5,21.9,52,0.00,CLR,,0.00,WeatherDisplay:10.37,2013-05-15 06:01:00,
2013-05-15 02:06:00,78.8,59.7,29.42,SE,135,14.5,21.9,52,0.00,CLR,,0.00,WeatherDisplay:10.37,2013-05-15 06:06:00,
2013-05-15 02:11:00,79.0,59.3,29.43,SE,135,12.5,15.0,51,0.00,CLR,,0.00,WeatherDisplay:10.37,2013-05-15 06:11:00,
2013-05-15 02:16:00,79.0,59.3,29.43,South,180,8.1,24.2,51,0.00,CLR,,0.00,WeatherDisplay:10.37,2013-05-15 06:16:00,
2013-05-15 02:21:00,78.6,60.1,29.43,South,180,11.4,15.0,53,0.00,CLR,,0.00,WeatherDisplay:10.37,2013-05-15 06:21:00,
2013-05-15 02:26:00,78.3,59.7,29.42,SW,225,9.7,9.7,53,0.00,CLR,,0.00,WeatherDisplay:10.37,2013-05-15 06:26:00,
2013-05-15 02:31:00,78.1,59.6,29.42,SE,135,6.8,12.7,53,0.00,CLR,,0.00,WeatherDisplay:10.37,2013-05-15 06:31:00,
2013-05-15 02:36:00,77.7,59.7,29.42,SW,225,9.7,16.1,54,0.00,CLR,,0.00,WeatherDisplay:10.37,2013-05-15 06:36:00,
2013-05-15 02:41:00,77.5,59.6,29.43,SW,225,11.4,15.0,54,0.00,CLR,,0.00,WeatherDisplay:10.37,2013-05-15 06:41:00,
2013-05-15 02:46:00,77.7,59.7,29.42,South,180,8.1,19.6,54,0.00,CLR,,0.00,WeatherDisplay:10.37,2013-05-15 06:46:00,
2013-05-15 02:51:00,77.5,59.6,29.42,South,180,6.4,9.2,54,0.00,CLR,,0.00,WeatherDisplay:10.37,2013-05-15 06:51:00,
2013-05-15 02:56:00,77.4,59.4,29.42,SE,135,13.7,20.2,54,0.00,CLR,,0.00,WeatherDisplay:10.37,2013-05-15 06:56:00,
2013-05-15 03:01:00,77.2,59.2,29.42,SE,135,11.7,11.7,54,0.00,CLR,,0.00,WeatherDisplay:10.37,2013-05-15 07:01:00,
2013-05-15 03:06:00,77.0,59.1,29.42,SW,225,8.8,15.0,54,0.00,CLR,,0.00,WeatherDisplay:10.37,2013-05-15 07:06:00,
2013-05-15 03:11:00,76.8,59.4,29.42,SE,135,10.5,17.3,55,0.00,CLR,,0.00,WeatherDisplay:10.37,2013-05-15 07:11:00,
2013-05-15 03:16:00,77.0,59.1,29.42,SE,135,11.7,21.9,54,0.00,CLR,,0.00,WeatherDisplay:10.37,2013-05-15 07:16:00,
2013-05-15 03:21:00,77.0,58.6,29.42,South,180,10.4,19.6,53,0.00,CLR,,0.00,WeatherDisplay:10.37,2013-05-15 07:21:00,
2013-05-15 03:27:00,77.2,58.7,29.43,South,180,10.4,20.7,53,0.00,CLR,,0.00,WeatherDisplay:10.37,2013-05-15 07:27:00,
2013-05-15 03:32:00,77.5,58.0,29.42,SE,135,8.8,23.0,51,0.00,CLR,,0.00,WeatherDisplay:10.37,2013-05-15 07:32:00,
2013-05-15 03:37:00,77.7,57.6,29.42,SE,135,15.4,24.2,50,0.00,CLR,,0.00,WeatherDisplay:10.37,2013-05-15 07:37:00,
2013-05-15 03:42:00,77.7,57.0,29.42,South,180,12.8,20.7,49,0.00,CLR,,0.00,WeatherDisplay:10.37,2013-05-15 07:42:00,
2013-05-15 03:47:00,78.1,57.4,29.42,East,90,12.5,23.0,49,0.00,CLR,,0.00,WeatherDisplay:10.37,2013-05-15 07:47:00,
2013-05-15 03:52:00,78.1,57.4,29.42,SE,135,15.4,27.6,49,0.00,CLR,,0.00,WeatherDisplay:10.37,2013-05-15 07:52:00,
2013-05-15 03:57:00,78.1,56.8,29.42,West,270,12.1,19.6,48,0.00,CLR,,0.00,WeatherDisplay:10.37,2013-05-15 07:57:00,
2013-05-15 04:02:00,78.1,56.8,29.42,South,180,16.8,28.8,48,0.00,CLR,,0.00,WeatherDisplay:10.37,2013-05-15 08:02:00,
2013-05-15 04:07:00,78.1,56.8,29.42,South,180,16.8,28.8,48,0.00,CLR,,0.00,WeatherDisplay:10.37,2013-05-15 08:07:00,
2013-05-15 04:12:00,77.5,56.9,29.42,South,180,12.8,23.0,49,0.00,CLR,,0.00,WeatherDisplay:10.37,2013-05-15 08:12:00,
2013-05-15 04:17:00,77.2,56.5,29.42,South,180,21.8,29.9,49,0.00,CLR,,0.00,WeatherDisplay:10.37,2013-05-15 08:17:00,
2013-05-15 04:22:00,77.0,56.4,29.42,SW,225,13.8,20.7,49,0.00,CLR,,0.00,WeatherDisplay:10.37,2013-05-15 08:22:00,
2013-05-15 04:27:00,76.6,57.2,29.42,West,270,11.4,28.8,51,0.00,CLR,,0.00,WeatherDisplay:10.37,2013-05-15 08:27:00,
2013-05-15 04:32:00,76.5,57.0,29.42,South,180,15.4,20.7,51,0.00,CLR,,0.00,WeatherDisplay:10.37,2013-05-15 08:32:00,
2013-05-15 04:37:00,76.3,56.8,29.42,South,180,12.1,21.9,51,0.00,CLR,,0.00,WeatherDisplay:10.37,2013-05-15 08:37:00,
2013-05-15 04:42:00,76.1,56.7,29.42,SW,225,16.8,24.2,51,0.00,CLR,,0.00,WeatherDisplay:10.37,2013-05-15 08:42:00,
2013-05-15 04:47:00,76.1,56.1,29.42,SW,225,14.5,20.7,50,0.00,CLR,,0.00,WeatherDisplay:10.37,2013-05-15 08:47:00,
2013-05-15 04:52:00,75.7,55.8,29.43,SW,225,15.4,31.1,50,0.00,CLR,,0.00,WeatherDisplay:10.37,2013-05-15 08:52:00,
2013-05-15 04:57:00,75.6,56.2,29.43,SW,225,20.2,25.3,51,0.00,CLR,,0.00,WeatherDisplay:10.37,2013-05-15 08:57:00,
2013-05-15 05:02:00,75.4,55.4,29.44,SW,225,15.4,27.6,50,0.00,CLR,,0.00,WeatherDisplay:10.37,2013-05-15 09:02:00,
2013-05-15 05:07:00,75.4,55.4,29.43,SW,225,20.2,28.8,50,0.00,CLR,,0.00,WeatherDisplay:10.37,2013-05-15 09:07:00,
2013-05-15 05:12:00,75.2,55.3,29.43,SW,225,20.9,31.1,50,0.00,CLR,,0.00,WeatherDisplay:10.37,2013-05-15 09:12:00,
2013-05-15 05:17:00,75.0,56.2,29.44,South,180,10.4,23.0,52,0.00,CLR,,0.00,WeatherDisplay:10.37,2013-05-15 09:17:00,
2013-05-15 05:22:00,74.8,56.0,29.44,SW,225,15.4,23.0,52,0.00,CLR,,0.00,WeatherDisplay:10.37,2013-05-15 09:22:00,
2013-05-15 05:27:00,74.7,55.9,29.45,South,180,12.8,20.7,52,0.00,CLR,,0.00,WeatherDisplay:10.37,2013-05-15 09:27:00,
2013-05-15 05:32:00,74.7,55.9,29.45,South,180,11.4,17.3,52,0.00,CLR,,0.00,WeatherDisplay:10.37,2013-05-15 09:32:00,
2013-05-15 05:37:00,74.5,55.7,29.45,South,180,13.8,25.3,52,0.00,CLR,,0.00,WeatherDisplay:10.37,2013-05-15 09:37:00,
2013-05-15 05:42:00,74.3,55.5,29.45,South,180,10.4,23.0,52,0.00,CLR,,0.00,WeatherDisplay:10.37,2013-05-15 09:42:00,
2013-05-15 05:47:00,74.3,55.5,29.46,South,180,10.4,18.4,52,0.00,CLR,,0.00,WeatherDisplay:10.37,2013-05-15 09:47:00,
2013-05-15 05:52:00,74.3,55.5,29.47,South,180,15.4,23.0,52,0.00,CLR,,0.00,WeatherDisplay:10.37,2013-05-15 09:52:00,
2013-05-15 05:57:00,74.1,54.8,29.47,South,180,10.4,17.3,51,0.00,CLR,,0.00,WeatherDisplay:10.37,2013-05-15 09:57:00,
2013-05-15 06:02:00,74.1,54.8,29.47,South,180,10.4,17.3,51,0.00,CLR,,0.00,WeatherDisplay:10.37,2013-05-15 10:02:00,
2013-05-15 06:07:00,74.1,54.8,29.47,South,180,10.4,17.3,51,0.00,CLR,,0.00,WeatherDisplay:10.37,2013-05-15 10:07:00,
2013-05-15 06:12:00,73.6,54.9,29.47,South,180,8.1,15.0,52,0.00,CLR,,0.00,WeatherDisplay:10.37,2013-05-15 10:12:00,
2013-05-15 06:17:00,73.6,54.3,29.48,South,180,14.5,20.7,51,0.00,CLR,,0.00,WeatherDisplay:10.37,2013-05-15 10:17:00,
2013-05-15 06:22:00,73.6,54.3,29.48,South,180,11.4,17.3,51,0.00,CLR,,0.00,WeatherDisplay:10.37,2013-05-15 10:22:00,
2013-05-15 06:27:00,73.4,54.2,29.48,South,180,7.4,19.6,51,0.00,CLR,,0.00,WeatherDisplay:10.37,2013-05-15 10:27:00,
2013-05-15 06:32:00,73.0,54.4,29.49,South,180,7.4,16.1,52,0.00,CLR,,0.00,WeatherDisplay:10.37,2013-05-15 10:32:00,
2013-05-15 06:37:00,72.9,54.2,29.49,South,180,9.7,13.8,52,0.00,CLR,,0.00,WeatherDisplay:10.37,2013-05-15 10:37:00,
2013-05-15 06:42:00,72.9,54.2,29.49,South,180,8.8,15.0,52,0.00,CLR,,0.00,WeatherDisplay:10.37,2013-05-15 10:42:00,
2013-05-15 06:47:00,72.9,54.2,29.50,South,180,8.8,19.6,52,0.00,CLR,,0.00,WeatherDisplay:10.37,2013-05-15 10:47:00,
2013-05-15 06:52:00,72.9,54.2,29.50,South,180,13.8,17.3,52,0.00,CLR,,0.00,WeatherDisplay:10.37,2013-05-15 10:52:00,
2013-05-15 06:57:00,73.0,54.4,29.50,South,180,15.4,24.2,52,0.00,CLR,,0.00,WeatherDisplay:10.37,2013-05-15 10:57:00,
2013-05-15 07:02:00,73.0,53.8,29.50,SSW,202,4.7,13.8,51,0.00,CLR,,0.00,WeatherDisplay:10.37,2013-05-15 11:02:00,
2013-05-15 07:07:00,72.9,53.7,29.50,SW,225,10.4,23.0,51,0.00,CLR,,0.00,WeatherDisplay:10.37,2013-05-15 11:07:00,
2013-05-15 07:12:00,72.7,54.0,29.51,SSW,202,6.4,11.5,52,0.00,CLR,,0.00,WeatherDisplay:10.37,2013-05-15 11:12:00,
2013-05-15 07:17:00,72.3,53.7,29.51,SW,225,6.4,9.2,52,0.00,CLR,,0.00,WeatherDisplay:10.37,2013-05-15 11:17:00,
2013-05-15 07:22:00,72.0,53.9,29.51,SW,225,5.7,12.7,53,0.00,CLR,,0.00,WeatherDisplay:10.37,2013-05-15 11:22:00,
2013-05-15 07:27:00,71.6,53.6,29.51,South,180,8.8,12.7,53,0.00,CLR,,0.00,WeatherDisplay:10.37,2013-05-15 11:27:00,
2013-05-15 07:32:00,71.2,53.7,29.51,South,180,1.7,12.7,54,0.00,CLR,,0.00,WeatherDisplay:10.37,2013-05-15 11:32:00,
2013-05-15 07:37:00,71.2,53.7,29.51,South,180,4.0,19.6,54,0.00,CLR,,0.00,WeatherDisplay:10.37,2013-05-15 11:37:00,
2013-05-15 07:42:00,70.9,53.9,29.51,SW,225,6.4,9.2,55,0.00,CLR,,0.00,WeatherDisplay:10.37,2013-05-15 11:42:00,
2013-05-15 07:48:00,70.9,54.4,29.52,North,0,10.5,15.0,56,0.00,CLR,,0.00,WeatherDisplay:10.37,2013-05-15 11:48:00,
2013-05-15 07:53:00,70.9,54.4,29.52,NW,315,5.7,11.5,56,0.00,CLR,,0.00,WeatherDisplay:10.37,2013-05-15 11:53:00,
2013-05-15 07:58:00,70.9,54.4,29.52,NW,315,5.7,12.7,56,0.00,CLR,,0.00,WeatherDisplay:10.37,2013-05-15 11:58:00,
2013-05-15 08:03:00,70.9,54.4,29.52,NW,315,4.0,10.4,56,0.00,CLR,,0.00,WeatherDisplay:10.37,2013-05-15 12:03:00,
2013-05-15 08:08:00,70.9,54.4,29.53,West,270,6.4,10.4,56,0.00,CLR,,0.00,WeatherDisplay:10.37,2013-05-15 12:08:00,
2013-05-15 08:13:00,70.7,54.2,29.53,West,270,8.8,12.7,56,0.00,CLR,,0.00,WeatherDisplay:10.37,2013-05-15 12:13:00,
2013-05-15 08:19:00,70.7,54.2,29.53,SW,225,8.1,15.4,56,0.00,CLR,,0.00,WeatherDisplay:10.37,2013-05-15 12:19:00,
2013-05-15 08:24:00,70.7,54.2,29.54,SW,225,7.4,13.8,56,0.00,CLR,,0.00,WeatherDisplay:10.37,2013-05-15 12:24:00,
2013-05-15 08:29:00,70.5,54.1,29.53,South,180,8.8,12.7,56,0.00,CLR,,0.00,WeatherDisplay:10.37,2013-05-15 12:29:00,
2013-05-15 08:35:00,70.3,53.9,29.53,South,184,7.0,0.0,56,0.00,CLR,CLR,0.00,WeatherDisplay:10.37,2013-05-15 12:35:00,
2013-05-15 08:40:00,70.3,53.9,29.53,South,180,5.7,9.2,56,0.00,CLR,,0.00,WeatherDisplay:10.37,2013-05-15 12:40:00,
2013-05-15 08:45:00,70.3,53.9,29.53,South,180,5.7,7.4,56,0.00,CLR,,0.00,WeatherDisplay:10.37,2013-05-15 12:45:00,
2013-05-15 08:50:00,70.3,53.9,29.54,SW,225,5.7,5.8,56,0.00,CLR,,0.00,WeatherDisplay:10.37,2013-05-15 12:50:00,
2013-05-15 08:55:00,70.5,53.6,29.53,NW,315,4.7,8.1,55,0.00,CLR,,0.00,WeatherDisplay:10.37,2013-05-15 12:55:00,
2013-05-15 09:00:00,70.5,53.1,29.53,NW,315,4.0,5.8,54,0.00,CLR,,0.00,WeatherDisplay:10.37,2013-05-15 13:00:00,
2013-05-15 09:05:00,70.5,53.1,29.53,West,270,4.0,10.4,54,0.00,CLR,,0.00,WeatherDisplay:10.37,2013-05-15 13:05:00,
2013-05-15 09:10:00,70.7,53.2,29.53,SW,225,4.0,9.2,54,0.00,CLR,,0.00,WeatherDisplay:10.37,2013-05-15 13:10:00,
2013-05-15 09:16:00,70.9,52.9,29.53,West,270,8.1,11.5,53,0.00,CLR,,0.00,WeatherDisplay:10.37,2013-05-15 13:16:00,
2013-05-15 09:21:00,71.2,53.2,29.54,West,270,4.7,9.2,53,0.00,CLR,,0.00,WeatherDisplay:10.37,2013-05-15 13:21:00,
2013-05-15 09:26:00,71.4,53.4,29.54,West,270,8.1,8.1,53,0.00,CLR,,0.00,WeatherDisplay:10.37,2013-05-15 13:26:00,
2013-05-15 09:32:00,71.6,53.0,29.53,SW,225,3.3,8.1,52,0.00,CLR,,0.00,WeatherDisplay:10.37,2013-05-15 13:32:00,
2013-05-15 09:37:00,72.1,54.6,29.53,SW,225,6.4,9.2,54,0.00,CLR,,0.00,WeatherDisplay:10.37,2013-05-15 13:37:00,
2013-05-15 09:42:00,73.4,55.7,29.53,East,90,4.8,8.1,54,0.00,CLR,,0.00,WeatherDisplay:10.37,2013-05-15 13:42:00,
2013-05-15 09:47:00,74.1,53.2,29.54,NE,45,4.0,12.7,48,0.00,CLR,,0.00,WeatherDisplay:10.37,2013-05-15 13:47:00,
2013-05-15 09:52:00,74.5,53.5,29.54,NE,45,4.8,11.5,48,0.00,CLR,,0.00,WeatherDisplay:10.37,2013-05-15 13:52:00,
2013-05-15 09:57:00,74.5,52.9,29.54,NW,315,4.0,12.7,47,0.00,CLR,,0.00,WeatherDisplay:10.37,2013-05-15 13:57:00,
2013-05-15 10:03:00,74.5,52.3,29.54,NW,315,6.4,9.7,46,0.00,CLR,,0.00,WeatherDisplay:10.37,2013-05-15 14:03:00,
2013-05-15 10:08:00,74.3,52.2,29.55,NW,315,3.3,10.4,46,0.00,CLR,,0.00,WeatherDisplay:10.37,2013-05-15 14:08:00,
2013-05-15 10:13:00,74.5,52.9,29.54,NW,315,4.0,9.2,47,0.00,CLR,,0.00,WeatherDisplay:10.37,2013-05-15 14:13:00,
2013-05-15 10:19:00,75.0,52.8,29.54,SW,225,5.7,9.2,46,0.00,CLR,,0.00,WeatherDisplay:10.37,2013-05-15 14:19:00,
2013-05-15 10:24:00,74.8,51.5,29.54,SW,225,3.3,9.2,44,0.00,CLR,,0.00,WeatherDisplay:10.37,2013-05-15 14:24:00,
2013-05-15 10:29:00,75.0,51.0,29.54,SW,225,4.7,12.7,43,0.00,CLR,,0.00,WeatherDisplay:10.37,2013-05-15 14:29:00,
2013-05-15 10:34:00,75.2,49.9,29.54,SW,225,5.7,12.7,41,0.00,CLR,,0.00,WeatherDisplay:10.37,2013-05-15 14:34:00,
2013-05-15 10:39:00,75.4,51.9,29.54,East,90,6.8,8.8,44,0.00,CLR,,0.00,WeatherDisplay:10.37,2013-05-15 14:39:00,
2013-05-15 10:44:00,75.2,51.2,29.55,South,180,4.0,9.2,43,0.00,CLR,,0.00,WeatherDisplay:10.37,2013-05-15 14:44:00,
2013-05-15 10:50:00,75.2,49.9,29.55,North,0,6.8,12.5,41,0.00,CLR,,0.00,WeatherDisplay:10.37,2013-05-15 14:50:00,
2013-05-15 10:55:00,75.0,49.1,29.55,NW,324,7.0,0.0,40,0.00,CLR,CLR,0.00,WeatherDisplay:10.37,2013-05-15 14:55:00,
2013-05-15 11:00:00,75.0,49.7,29.55,West,270,8.1,9.2,41,0.00,CLR,,0.00,WeatherDisplay:10.37,2013-05-15 15:00:00,
2013-05-15 11:05:00,75.0,49.1,29.55,West,279,5.0,0.0,40,0.00,CLR,CLR,0.00,WeatherDisplay:10.37,2013-05-15 15:05:00,
2013-05-15 11:10:00,75.0,49.7,29.55,NW,315,4.0,9.2,41,0.00,CLR,,0.00,WeatherDisplay:10.37,2013-05-15 15:10:00,
2013-05-15 11:15:00,75.6,50.9,29.55,WNW,300,2.0,0.0,42,0.00,CLR,CLR,0.00,WeatherDisplay:10.37,2013-05-15 15:15:00,
2013-05-15 11:20:00,76.8,51.3,29.55,WNW,294,5.0,0.0,41,0.00,CLR,CLR,0.00,WeatherDisplay:10.37,2013-05-15 15:20:00,
2013-05-15 11:26:00,76.8,49.3,29.56,SW,225,3.3,16.1,38,0.00,CLR,,0.00,WeatherDisplay:10.37,2013-05-15 15:26:00,
2013-05-15 11:31:00,75.9,49.2,29.56,SW,225,2.4,15.0,39,0.00,CLR,,0.00,WeatherDisplay:10.37,2013-05-15 15:31:00,
2013-05-15 11:36:00,75.7,50.4,29.56,SW,225,4.0,13.8,41,0.00,CLR,,0.00,WeatherDisplay:10.37,2013-05-15 15:36:00,
2013-05-15 11:41:00,75.6,49.5,29.56,East,90,7.7,18.4,40,0.00,CLR,,0.00,WeatherDisplay:10.37,2013-05-15 15:41:00,
2013-05-15 11:47:00,75.6,50.2,29.57,NW,315,3.3,10.4,41,0.00,CLR,,0.00,WeatherDisplay:10.37,2013-05-15 15:47:00,
2013-05-15 11:52:00,75.7,49.7,29.57,West,270,9.7,13.8,40,0.00,CLR,,0.00,WeatherDisplay:10.37,2013-05-15 15:52:00,
2013-05-15 11:57:00,75.4,48.0,29.57,West,270,6.4,11.5,38,0.00,CLR,,0.00,WeatherDisplay:10.37,2013-05-15 15:57:00,
2013-05-15 12:02:00,75.4,48.0,29.57,West,270,5.7,10.4,38,0.00,CLR,,0.00,WeatherDisplay:10.37,2013-05-15 16:02:00,
2013-05-15 12:08:00,75.2,47.8,29.57,NW,315,12.1,15.4,38,0.00,CLR,,0.00,WeatherDisplay:10.37,2013-05-15 16:08:00,
2013-05-15 12:13:00,75.2,47.8,29.58,West,270,4.7,12.7,38,0.00,CLR,,0.00,WeatherDisplay:10.37,2013-05-15 16:13:00,
2013-05-15 12:18:00,75.6,48.2,29.57,NW,315,6.4,11.5,38,0.00,CLR,,0.00,WeatherDisplay:10.37,2013-05-15 16:18:00,
2013-05-15 12:23:00,76.1,49.3,29.58,North,0,5.7,10.4,39,0.00,CLR,,0.00,WeatherDisplay:10.37,2013-05-15 16:23:00,
2013-05-15 12:29:00,76.6,47.7,29.57,SW,225,5.7,13.8,36,0.00,CLR,,0.00,WeatherDisplay:10.37,2013-05-15 16:29:00,
2013-05-15 12:35:00,77.3,48.2,29.57,SW,225,5.0,0.0,36,0.00,CLR,CLR,0.00,WeatherDisplay:10.37,2013-05-15 16:35:00,
2013-05-15 12:40:00,77.4,46.8,29.57,SW,225,4.0,9.2,34,0.00,CLR,,0.00,WeatherDisplay:10.37,2013-05-15 16:40:00,
2013-05-15 12:45:00,77.7,47.1,29.57,West,270,5.7,10.4,34,0.00,CLR,,0.00,WeatherDisplay:10.37,2013-05-15 16:45:00,
2013-05-15 12:50:00,77.5,46.9,29.57,West,270,1.7,9.2,34,0.00,CLR,,0.00,WeatherDisplay:10.37,2013-05-15 16:50:00,
2013-05-15 12:55:00,77.2,46.6,29.57,West,270,2.4,11.5,34,0.00,CLR,,0.00,WeatherDisplay:10.37,2013-05-15 16:55:00,
2013-05-15 13:01:00,76.5,49.0,29.56,West,270,9.7,12.7,38,0.00,CLR,,0.00,WeatherDisplay:10.37,2013-05-15 17:01:00,
2013-05-15 13:06:00,76.5,49.7,29.56,NW,315,4.7,10.4,39,0.00,CLR,,0.00,WeatherDisplay:10.37,2013-05-15 17:06:00,
2013-05-15 13:12:00,77.0,49.4,29.56,SW,225,8.8,16.1,38,0.00,CLR,,0.00,WeatherDisplay:10.37,2013-05-15 17:12:00,
2013-05-15 13:17:00,76.6,49.1,29.55,North,0,7.7,13.8,38,0.00,CLR,,0.00,WeatherDisplay:10.37,2013-05-15 17:17:00,
2013-05-15 13:23:00,76.5,49.7,29.55,NW,315,3.3,12.7,39,0.00,CLR,,0.00,WeatherDisplay:10.37,2013-05-15 17:23:00,
2013-05-15 13:28:00,76.6,49.1,29.55,North,0,6.8,11.7,38,0.00,CLR,,0.00,WeatherDisplay:10.37,2013-05-15 17:28:00,
2013-05-15 13:33:00,76.5,49.7,29.54,North,0,8.8,15.0,39,0.00,CLR,,0.00,WeatherDisplay:10.37,2013-05-15 17:33:00,
2013-05-15 13:39:00,76.5,50.3,29.54,NE,45,2.8,12.7,40,0.00,CLR,,0.00,WeatherDisplay:10.37,2013-05-15 17:39:00,
2013-05-15 13:44:00,76.6,49.8,29.54,North,0,4.0,13.8,39,0.00,CLR,,0.00,WeatherDisplay:10.37,2013-05-15 17:44:00,
2013-05-15 13:49:00,77.2,51.0,29.55,North,0,4.0,11.5,40,0.00,CLR,,0.00,WeatherDisplay:10.37,2013-05-15 17:49:00,
2013-05-15 13:54:00,76.8,50.7,29.54,East,90,4.8,9.2,40,0.00,CLR,,0.00,WeatherDisplay:10.37,2013-05-15 17:54:00,
2013-05-15 13:59:00,77.0,50.1,29.55,South,180,4.0,15.0,39,0.00,CLR,,0.00,WeatherDisplay:10.37,2013-05-15 17:59:00,
2013-05-15 14:04:00,76.8,52.0,29.55,NW,315,8.1,12.1,42,0.00,CLR,,0.00,WeatherDisplay:10.37,2013-05-15 18:04:00,
2013-05-15 14:09:00,77.0,50.1,29.55,West,270,3.3,11.5,39,0.00,CLR,,0.00,WeatherDisplay:10.37,2013-05-15 18:09:00,
2013-05-15 14:15:00,77.2,49.6,29.55,WSW,239,3.0,0.0,38,0.00,CLR,CLR,0.00,WeatherDisplay:10.37,2013-05-15 18:15:00,
2013-05-15 14:20:00,77.2,50.3,29.55,NE,47,5.0,0.0,39,0.00,CLR,CLR,0.00,WeatherDisplay:10.37,2013-05-15 18:20:00,
2013-05-15 14:25:00,77.5,50.6,29.55,West,276,7.0,0.0,39,0.00,CLR,CLR,0.00,WeatherDisplay:10.37,2013-05-15 18:25:00,
2013-05-15 14:30:00,77.5,52.6,29.54,West,270,2.4,7.4,42,0.00,CLR,,0.00,WeatherDisplay:10.37,2013-05-15 18:30:00,
2013-05-15 14:35:00,77.5,51.3,29.53,West,270,2.4,4.6,40,0.00,CLR,,0.00,WeatherDisplay:10.37,2013-05-15 18:35:00,
2013-05-15 14:40:00,77.7,50.8,29.54,West,270,3.3,10.4,39,0.00,CLR,,0.00,WeatherDisplay:10.37,2013-05-15 18:40:00,
2013-05-15 14:46:00,77.7,50.8,29.53,West,270,4.7,6.9,39,0.00,CLR,,0.00,WeatherDisplay:10.37,2013-05-15 18:46:00,
2013-05-15 14:51:00,78.1,48.9,29.53,West,270,2.4,12.7,36,0.00,CLR,,0.00,WeatherDisplay:10.37,2013-05-15 18:51:00,
2013-05-15 14:56:00,78.1,49.7,29.53,West,270,2.4,4.6,37,0.00,CLR,,0.00,WeatherDisplay:10.37,2013-05-15 18:56:00,
2013-05-15 15:01:00,78.3,52.0,29.52,West,270,4.7,8.1,40,0.00,CLR,,0.00,WeatherDisplay:10.37,2013-05-15 19:01:00,
2013-05-15 15:07:00,78.8,50.3,29.52,West,270,4.0,9.2,37,0.00,CLR,,0.00,WeatherDisplay:10.37,2013-05-15 19:07:00,
2013-05-15 15:12:00,78.3,48.4,29.51,West,270,3.3,9.2,35,0.00,CLR,,0.00,WeatherDisplay:10.37,2013-05-15 19:12:00,
2013-05-15 15:17:00,78.6,48.7,29.51,West,270,3.3,9.2,35,0.00,CLR,,0.00,WeatherDisplay:10.37,2013-05-15 19:17:00,
2013-05-15 15:22:00,79.0,49.0,29.51,West,270,4.0,8.1,35,0.00,CLR,,0.00,WeatherDisplay:10.37,2013-05-15 19:22:00,
2013-05-15 15:27:00,79.0,48.2,29.50,West,270,3.3,9.2,34,0.00,CLR,,0.00,WeatherDisplay:10.37,2013-05-15 19:27:00,
2013-05-15 15:32:00,78.3,48.4,29.49,West,270,1.7,9.2,35,0.00,CLR,,0.00,WeatherDisplay:10.37,2013-05-15 19:32:00,
2013-05-15 15:37:00,78.3,48.4,29.50,West,270,1.7,6.9,35,0.00,CLR,,0.00,WeatherDisplay:10.37,2013-05-15 19:37:00,
2013-05-15 15:43:00,78.8,48.1,29.49,West,270,2.4,6.9,34,0.00,CLR,,0.00,WeatherDisplay:10.37,2013-05-15 19:43:00,
2013-05-15 15:48:00,79.3,48.5,29.49,West,270,4.0,6.9,34,0.00,CLR,,0.00,WeatherDisplay:10.37,2013-05-15 19:48:00,
2013-05-15 15:53:00,79.7,48.0,29.48,West,270,4.0,9.2,33,0.00,CLR,,0.00,WeatherDisplay:10.37,2013-05-15 19:53:00,
2013-05-15 15:58:00,79.3,47.7,29.48,West,270,4.0,6.9,33,0.00,CLR,,0.00,WeatherDisplay:10.37,2013-05-15 19:58:00,
2013-05-15 16:03:00,79.3,48.5,29.47,West,270,4.0,4.6,34,0.00,CLR,,0.00,WeatherDisplay:10.37,2013-05-15 20:03:00,
2013-05-15 16:08:00,79.2,49.1,29.47,West,270,4.7,5.8,35,0.00,CLR,,0.00,WeatherDisplay:10.37,2013-05-15 20:08:00,
2013-05-15 16:14:00,79.5,49.5,29.47,West,270,2.4,5.8,35,0.00,CLR,,0.00,WeatherDisplay:10.37,2013-05-15 20:14:00,
2013-05-15 16:19:00,79.5,47.9,29.47,West,270,1.7,6.9,33,0.00,CLR,,0.00,WeatherDisplay:10.37,2013-05-15 20:19:00,
2013-05-15 16:20:00,53.2,52.7,29.58,West,270,1.0,3.0,98,0.00,CLR,CLR,0.00,WeatherDisplay:10.37,2013-05-15 20:20:00,
2013-05-15 16:24:00,80.1,48.4,29.46,West,270,2.4,5.7,33,0.00,CLR,,0.00,WeatherDisplay:10.37,2013-05-15 20:24:00,
2013-05-15 16:25:00,53.2,52.7,29.58,West,270,1.0,3.0,98,0.00,CLR,CLR,0.00,WeatherDisplay:10.37,2013-05-15 20:25:00,
2013-05-15 16:29:00,80.2,48.5,29.46,West,270,2.4,4.6,33,0.00,CLR,,0.00,WeatherDisplay:10.37,2013-05-15 20:29:00,
2013-05-15 16:30:00,53.2,52.7,29.58,West,270,1.0,3.0,98,0.00,CLR,CLR,0.00,WeatherDisplay:10.37,2013-05-15 20:30:00,
2013-05-15 16:34:00,80.6,48.8,29.45,West,270,3.3,6.9,33,0.00,CLR,,0.00,WeatherDisplay:10.37,2013-05-15 20:34:00,
2013-05-15 16:35:00,53.2,52.7,29.58,West,270,1.0,3.0,98,0.00,CLR,CLR,0.00,WeatherDisplay:10.37,2013-05-15 20:35:00,
2013-05-15 16:39:00,81.1,49.3,29.44,West,270,2.4,5.8,33,0.00,CLR,,0.00,WeatherDisplay:10.37,2013-05-15 20:39:00,
2013-05-15 16:40:00,53.2,52.7,29.58,West,270,1.0,3.0,98,0.00,CLR,CLR,0.00,WeatherDisplay:10.37,2013-05-15 20:40:00,
2013-05-15 16:44:00,82.0,49.3,29.44,West,270,2.4,4.6,32,0.00,CLR,,0.00,WeatherDisplay:10.37,2013-05-15 20:44:00,
2013-05-15 16:45:00,53.2,52.7,29.58,West,270,1.0,3.0,98,0.00,CLR,CLR,0.00,WeatherDisplay:10.37,2013-05-15 20:45:00,
2013-05-15 16:49:00,81.7,48.9,29.43,West,270,1.7,5.8,32,0.00,CLR,,0.00,WeatherDisplay:10.37,2013-05-15 20:49:00,
2013-05-15 16:50:00,53.8,52.9,29.59,West,270,1.0,3.0,97,0.00,CLR,CLR,0.00,WeatherDisplay:10.37,2013-05-15 20:50:00,
2013-05-15 16:55:00,81.8,49.8,29.43,West,270,3.0,0.0,33,0.00,CLR,CLR,0.00,WeatherDisplay:10.37,2013-05-15 20:55:00,
2013-05-15 17:00:00,81.5,49.6,29.42,West,270,1.7,6.9,33,0.00,CLR,,0.00,WeatherDisplay:10.37,2013-05-15 21:00:00,
2013-05-15 17:05:00,81.9,50.7,29.41,West,270,4.0,11.5,34,0.00,CLR,,0.00,WeatherDisplay:10.37,2013-05-15 21:05:00,
2013-05-15 17:10:00,81.5,48.8,29.41,West,270,3.3,6.9,32,0.00,CLR,,0.00,WeatherDisplay:10.37,2013-05-15 21:10:00,
2013-05-15 17:15:00,81.7,49.8,29.40,West,270,3.3,6.9,33,0.00,CLR,,0.00,WeatherDisplay:10.37,2013-05-15 21:15:00,
2013-05-15 17:20:00,81.3,48.6,29.40,West,270,3.3,5.8,32,0.00,CLR,,0.00,WeatherDisplay:10.37,2013-05-15 21:20:00,
2013-05-15 17:25:00,79.9,49.0,29.39,West,270,1.7,6.9,34,0.00,CLR,,0.00,WeatherDisplay:10.37,2013-05-15 21:25:00,
2013-05-15 17:30:00,79.7,51.1,29.39,West,270,5.7,7.4,37,0.00,CLR,,0.00,WeatherDisplay:10.37,2013-05-15 21:30:00,
2013-05-15 17:35:00,79.2,49.1,29.38,West,270,1.7,6.9,35,0.00,CLR,,0.00,WeatherDisplay:10.37,2013-05-15 21:35:00,
2013-05-15 17:40:00,54.7,52.1,29.60,West,270,0.0,0.0,91,0.00,CLR,CLR,0.00,WeatherDisplay:10.37,2013-05-15 21:40:00,
2013-05-15 17:41:00,78.6,50.2,29.37,West,270,2.4,4.6,37,0.00,CLR,,0.00,WeatherDisplay:10.37,2013-05-15 21:41:00,
2013-05-15 17:45:00,54.7,52.1,29.60,West,270,0.0,0.0,91,0.00,CLR,CLR,0.00,WeatherDisplay:10.37,2013-05-15 21:45:00,
2013-05-15 17:46:00,78.3,51.3,29.37,West,270,1.7,3.5,39,0.00,CLR,,0.00,WeatherDisplay:10.37,2013-05-15 21:46:00,
2013-05-15 17:50:00,54.0,52.0,29.61,West,270,0.0,0.0,93,0.00,CLR,CLR,0.00,WeatherDisplay:10.37,2013-05-15 21:50:00,
2013-05-15 17:51:00,78.3,50.6,29.37,West,270,1.7,4.6,38,0.00,CLR,,0.00,WeatherDisplay:10.37,2013-05-15 21:51:00,
2013-05-15 17:55:00,54.0,52.0,29.61,West,270,0.0,0.0,93,0.00,CLR,CLR,0.00,WeatherDisplay:10.37,2013-05-15 21:55:00,
2013-05-15 17:56:00,78.1,50.4,29.37,West,270,0.7,3.5,38,0.00,CLR,,0.00,WeatherDisplay:10.37,2013-05-15 21:56:00,
2013-05-15 18:00:00,54.0,52.0,29.61,West,270,0.0,0.0,93,0.00,CLR,CLR,0.00,WeatherDisplay:10.37,2013-05-15 22:00:00,
2013-05-15 18:02:00,77.7,51.5,29.37,West,270,0.7,2.4,40,0.00,CLR,,0.00,WeatherDisplay:10.37,2013-05-15 22:02:00,
2013-05-15 18:05:00,54.0,52.0,29.61,West,270,0.0,0.0,93,0.00,CLR,CLR,0.00,WeatherDisplay:10.37,2013-05-15 22:05:00,
2013-05-15 18:07:00,77.5,51.3,29.37,West,270,1.7,3.5,40,0.00,CLR,,0.00,WeatherDisplay:10.37,2013-05-15 22:07:00,
2013-05-15 18:10:00,54.0,52.0,29.61,West,270,0.0,0.0,93,0.00,CLR,CLR,0.00,WeatherDisplay:10.37,2013-05-15 22:10:00,
2013-05-15 18:12:00,77.5,50.6,29.37,West,270,0.7,3.5,39,0.00,CLR,,0.00,WeatherDisplay:10.37,2013-05-15 22:12:00,
2013-05-15 18:15:00,54.0,52.0,29.61,West,270,0.0,0.0,93,0.00,CLR,CLR,0.00,WeatherDisplay:10.37,2013-05-15 22:15:00,
2013-05-15 18:17:00,77.7,50.8,29.36,West,270,1.7,4.6,39,0.00,CLR,,0.00,WeatherDisplay:10.37,2013-05-15 22:17:00,
2013-05-15 18:20:00,53.2,52.4,29.61,West,270,0.0,0.0,97,0.00,CLR,CLR,0.00,WeatherDisplay:10.37,2013-05-15 22:20:00,
2013-05-15 18:22:00,78.4,52.1,29.37,West,270,2.4,2.4,40,0.00,CLR,,0.00,WeatherDisplay:10.37,2013-05-15 22:22:00,
2013-05-15 18:25:00,53.2,52.4,29.61,West,270,0.0,0.0,97,0.00,CLR,CLR,0.00,WeatherDisplay:10.37,2013-05-15 22:25:00,
2013-05-15 18:27:00,78.6,51.6,29.37,West,270,4.7,6.4,39,0.00,CLR,,0.00,WeatherDisplay:10.37,2013-05-15 22:27:00,
2013-05-15 18:30:00,53.2,52.4,29.61,West,270,0.0,0.0,97,0.00,CLR,CLR,0.00,WeatherDisplay:10.37,2013-05-15 22:30:00,
2013-05-15 18:33:00,78.6,51.6,29.37,West,270,0.7,5.8,39,0.00,CLR,,0.00,WeatherDisplay:10.37,2013-05-15 22:33:00,
2013-05-15 18:35:00,53.2,52.4,29.61,West,270,0.0,0.0,97,0.00,CLR,CLR,0.00,WeatherDisplay:10.37,2013-05-15 22:35:00,
2013-05-15 18:38:00,79.3,51.5,29.37,West,270,2.4,4.7,38,0.00,CLR,,0.00,WeatherDisplay:10.37,2013-05-15 22:38:00,
2013-05-15 18:40:00,53.2,52.4,29.61,West,270,0.0,0.0,97,0.00,CLR,CLR,0.00,WeatherDisplay:10.37,2013-05-15 22:40:00,
2013-05-15 18:43:00,79.7,50.4,29.37,West,270,0.7,4.6,36,0.00,CLR,,0.00,WeatherDisplay:10.37,2013-05-15 22:43:00,
2013-05-15 18:45:00,53.2,52.4,29.61,West,270,0.0,0.0,97,0.00,CLR,CLR,0.00,WeatherDisplay:10.37,2013-05-15 22:45:00,
2013-05-15 18:49:00,79.3,49.3,29.37,West,270,0.7,2.4,35,0.00,CLR,,0.00,WeatherDisplay:10.37,2013-05-15 22:49:00,
2013-05-15 18:50:00,52.2,51.6,29.62,West,270,0.0,0.0,98,0.00,CLR,CLR,0.00,WeatherDisplay:10.37,2013-05-15 22:50:00,
2013-05-15 18:54:00,79.3,50.8,29.37,West,270,0.7,4.6,37,0.00,CLR,,0.00,WeatherDisplay:10.37,2013-05-15 22:54:00,
2013-05-15 18:55:00,52.2,51.6,29.62,West,270,0.0,0.0,98,0.00,CLR,CLR,0.00,WeatherDisplay:10.37,2013-05-15 22:55:00,
2013-05-15 18:59:00,79.5,51.0,29.37,West,270,2.4,3.5,37,0.00,CLR,,0.00,WeatherDisplay:10.37,2013-05-15 22:59:00,
2013-05-15 19:00:00,52.2,51.6,29.62,West,270,0.0,0.0,98,0.00,CLR,CLR,0.00,WeatherDisplay:10.37,2013-05-15 23:00:00,
2013-05-15 19:04:00,79.2,47.6,29.37,West,270,2.4,4.6,33,0.00,CLR,,0.00,WeatherDisplay:10.37,2013-05-15 23:04:00,
2013-05-15 19:05:00,52.2,51.6,29.62,West,270,0.0,0.0,98,0.00,CLR,CLR,0.00,WeatherDisplay:10.37,2013-05-15 23:05:00,
2013-05-15 19:10:00,78.9,47.4,29.37,West,270,1.0,0.0,33,0.00,CLR,CLR,0.00,WeatherDisplay:10.37,2013-05-15 23:10:00,
2013-05-15 19:15:00,78.3,49.8,29.38,West,270,0.7,1.1,37,0.00,CLR,,0.00,WeatherDisplay:10.37,2013-05-15 23:15:00,
2013-05-15 19:20:00,77.4,46.8,29.37,West,270,0.7,4.6,34,0.00,CLR,,0.00,WeatherDisplay:10.37,2013-05-15 23:20:00,
2013-05-15 19:25:00,76.8,47.8,29.37,West,270,0.0,0.0,36,0.00,CLR,CLR,0.00,WeatherDisplay:10.37,2013-05-15 23:25:00,
2013-05-15 19:30:00,51.6,51.3,29.63,West,270,0.0,0.0,99,0.00,CLR,CLR,0.00,WeatherDisplay:10.37,2013-05-15 23:30:00,
2013-05-15 19:31:00,76.8,47.8,29.37,West,270,1.7,3.5,36,0.00,CLR,,0.00,WeatherDisplay:10.37,2013-05-15 23:31:00,
2013-05-15 19:35:00,51.6,51.3,29.63,West,270,0.0,0.0,99,0.00,CLR,CLR,0.00,WeatherDisplay:10.37,2013-05-15 23:35:00,
2013-05-15 19:36:00,77.0,48.0,29.37,West,270,1.7,3.5,36,0.00,CLR,,0.00,WeatherDisplay:10.37,2013-05-15 23:36:00,
2013-05-15 19:40:00,51.6,51.3,29.63,West,270,0.0,0.0,99,0.00,CLR,CLR,0.00,WeatherDisplay:10.37,2013-05-15 23:40:00,
2013-05-15 19:41:00,77.4,47.6,29.37,West,270,0.7,1.7,35,0.00,CLR,,0.00,WeatherDisplay:10.37,2013-05-15 23:41:00,
2013-05-15 19:45:00,51.6,51.3,29.63,West,270,0.0,0.0,99,0.00,CLR,CLR,0.00,WeatherDisplay:10.37,2013-05-15 23:45:00,
2013-05-15 19:46:00,77.7,48.6,29.37,West,270,0.0,1.7,36,0.00,CLR,,0.00,WeatherDisplay:10.37,2013-05-15 23:46:00,
2013-05-15 19:50:00,51.4,51.2,29.65,West,270,1.0,2.0,99,0.00,CLR,CLR,0.00,WeatherDisplay:10.37,2013-05-15 23:50:00,
2013-05-15 19:52:00,77.4,48.3,29.38,West,270,0.0,1.1,36,0.00,CLR,,0.00,WeatherDisplay:10.37,2013-05-15 23:52:00,
2013-05-15 19:55:00,51.4,51.2,29.65,West,270,1.0,2.0,99,0.00,CLR,CLR,0.00,WeatherDisplay:10.37,2013-05-15 23:55:00,
2013-05-15 19:57:00,77.5,49.2,29.38,West,270,0.0,0.0,37,0.00,CLR,,0.00,WeatherDisplay:10.37,2013-05-15 23:57:00,
2013-05-15 20:00:00,51.4,51.2,29.65,West,270,1.0,2.0,99,0.00,CLR,CLR,0.00,WeatherDisplay:10.37,2013-05-16 00:00:00,
2013-05-15 20:02:00,78.1,48.9,29.37,West,270,1.7,3.5,36,0.00,CLR,,0.00,WeatherDisplay:10.37,2013-05-16 00:02:00,
2013-05-15 20:05:00,51.4,51.2,29.65,West,270,1.0,2.0,99,0.00,CLR,CLR,0.00,WeatherDisplay:10.37,2013-05-16 00:05:00,
2013-05-15 20:07:00,77.7,47.1,29.38,West,270,0.0,2.3,34,0.00,CLR,,0.00,WeatherDisplay:10.37,2013-05-16 00:07:00,
2013-05-15 20:10:00,51.4,51.2,29.65,West,270,1.0,2.0,99,0.00,CLR,CLR,0.00,WeatherDisplay:10.37,2013-05-16 00:10:00,
2013-05-15 20:12:00,76.5,47.5,29.38,West,270,0.0,1.1,36,0.00,CLR,,0.00,WeatherDisplay:10.37,2013-05-16 00:12:00,
2013-05-15 20:15:00,51.4,51.2,29.65,West,270,1.0,2.0,99,0.00,CLR,CLR,0.00,WeatherDisplay:10.37,2013-05-16 00:15:00,
2013-05-15 20:17:00,74.5,47.2,29.39,West,270,0.0,1.1,38,0.00,CLR,,0.00,WeatherDisplay:10.37,2013-05-16 00:17:00,
2013-05-15 20:20:00,52.2,51.6,29.66,West,270,1.0,2.0,98,0.00,CLR,CLR,0.00,WeatherDisplay:10.37,2013-05-16 00:20:00,
2013-05-15 20:22:00,73.9,47.4,29.39,West,270,0.0,1.1,39,0.00,CLR,,0.00,WeatherDisplay:10.37,2013-05-16 00:22:00,
2013-05-15 20:27:00,73.0,47.9,29.39,West,270,0.0,0.0,41,0.00,CLR,,0.00,WeatherDisplay:10.37,2013-05-16 00:27:00,
2013-05-15 20:32:00,72.7,47.6,29.39,West,270,0.0,0.0,41,0.00,CLR,,0.00,WeatherDisplay:10.37,2013-05-16 00:32:00,
2013-05-15 20:37:00,72.3,47.9,29.39,West,270,0.0,0.0,42,0.00,CLR,,0.00,WeatherDisplay:10.37,2013-05-16 00:37:00,
2013-05-15 20:42:00,71.4,48.4,29.39,West,270,0.0,0.0,44,0.00,CLR,,0.00,WeatherDisplay:10.37,2013-05-16 00:42:00,
2013-05-15 20:47:00,70.7,48.3,29.39,West,270,0.0,1.1,45,0.00,CLR,,0.00,WeatherDisplay:10.37,2013-05-16 00:47:00,
2013-05-15 20:52:00,70.3,48.6,29.39,West,270,0.7,1.1,46,0.00,CLR,,0.00,WeatherDisplay:10.37,2013-05-16 00:52:00,
2013-05-15 20:57:00,69.8,48.7,29.40,West,270,0.0,1.1,47,0.00,CLR,,0.00,WeatherDisplay:10.37,2013-05-16 00:57:00,
2013-05-15 21:03:00,69.6,49.6,29.39,West,270,0.7,1.7,49,0.00,CLR,,0.00,WeatherDisplay:10.37,2013-05-16 01:03:00,
2013-05-15 21:08:00,69.3,50.4,29.39,West,270,0.7,1.1,51,0.00,CLR,,0.00,WeatherDisplay:10.37,2013-05-16 01:08:00,
2013-05-15 21:13:00,68.7,50.4,29.41,West,270,0.0,0.7,52,0.00,CLR,,0.00,WeatherDisplay:10.37,2013-05-16 01:13:00,
2013-05-15 21:18:00,68.2,50.4,29.42,West,270,0.0,2.3,53,0.00,CLR,,0.00,WeatherDisplay:10.37,2013-05-16 01:18:00,
2013-05-15 21:23:00,68.0,50.7,29.42,West,270,0.0,1.1,54,0.00,CLR,,0.00,WeatherDisplay:10.37,2013-05-16 01:23:00,
2013-05-15 21:28:00,67.5,51.2,29.42,West,270,0.0,0.0,56,0.00,CLR,,0.00,WeatherDisplay:10.37,2013-05-16 01:28:00,
2013-05-15 21:34:00,67.1,50.9,29.42,West,270,0.0,0.0,56,0.00,CLR,,0.00,WeatherDisplay:10.37,2013-05-16 01:34:00,
2013-05-15 21:36:00,52.6,52.0,29.66,West,270,1.0,2.0,98,0.00,CLR,CLR,0.00,WeatherDisplay:10.37,2013-05-16 01:36:00,
2013-05-15 21:37:00,52.6,52.0,29.66,West,270,1.0,0.0,98,0.00,CLR,CLR,0.00,WeatherDisplay:10.37,2013-05-16 01:37:00,
2013-05-15 21:38:00,52.6,52.0,29.66,West,270,1.0,0.0,98,0.00,CLR,CLR,0.00,WeatherDisplay:10.37,2013-05-16 01:38:00,
2013-05-15 21:39:00,66.6,50.8,29.43,West,270,0.0,0.0,57,0.00,CLR,,0.00,WeatherDisplay:10.37,2013-05-16 01:39:00,
2013-05-15 21:40:00,52.6,52.0,29.66,West,270,1.0,0.0,98,0.00,CLR,CLR,0.00,WeatherDisplay:10.37,2013-05-16 01:40:00,
2013-05-15 21:44:00,66.2,51.4,29.42,West,270,0.7,1.7,59,0.00,CLR,,0.00,WeatherDisplay:10.37,2013-05-16 01:44:00,
2013-05-15 21:50:00,65.7,51.8,29.43,West,270,0.0,0.0,61,0.00,CLR,CLR,0.00,WeatherDisplay:10.37,2013-05-16 01:50:00,
2013-05-15 21:55:00,65.3,51.5,29.43,West,270,0.0,0.0,61,0.00,CLR,CLR,0.00,WeatherDisplay:10.37,2013-05-16 01:55:00,
2013-05-15 22:00:00,64.8,51.4,29.43,West,270,0.0,0.0,62,0.00,CLR,,0.00,WeatherDisplay:10.37,2013-05-16 02:00:00,
2013-05-15 22:05:00,64.2,51.4,29.44,West,270,0.0,1.1,63,0.00,CLR,,0.00,WeatherDisplay:10.37,2013-05-16 02:05:00,
2013-05-15 22:10:00,64.0,51.6,29.44,West,270,0.0,0.0,64,0.00,CLR,,0.00,WeatherDisplay:10.37,2013-05-16 02:10:00,
2013-05-15 22:15:00,63.7,51.3,29.44,West,270,1.0,0.0,64,0.00,CLR,CLR,0.00,WeatherDisplay:10.37,2013-05-16 02:15:00,
2013-05-15 22:20:00,63.4,51.4,29.45,West,270,0.0,0.0,65,0.00,CLR,CLR,0.00,WeatherDisplay:10.37,2013-05-16 02:20:00,
2013-05-15 22:25:00,63.1,51.2,29.45,West,270,0.0,0.0,65,0.00,CLR,CLR,0.00,WeatherDisplay:10.37,2013-05-16 02:25:00,
2013-05-15 22:30:00,62.7,50.8,29.45,West,270,0.0,0.0,65,0.00,CLR,CLR,0.00,WeatherDisplay:10.37,2013-05-16 02:30:00,
2013-05-15 22:35:00,62.3,51.2,29.45,West,270,0.0,0.0,67,0.00,CLR,CLR,0.00,WeatherDisplay:10.37,2013-05-16 02:35:00,
2013-05-15 22:40:00,61.9,52.0,29.46,West,270,0.0,0.0,70,0.00,CLR,CLR,0.00,WeatherDisplay:10.37,2013-05-16 02:40:00,
2013-05-15 22:45:00,61.7,52.6,29.46,West,270,0.0,0.0,72,0.00,CLR,,0.00,WeatherDisplay:10.37,2013-05-16 02:45:00,
2013-05-15 22:50:00,61.3,52.2,29.47,West,270,0.0,0.0,72,0.00,CLR,,0.00,WeatherDisplay:10.37,2013-05-16 02:50:00,
2013-05-15 22:55:00,60.8,52.1,29.47,West,270,0.7,1.7,73,0.00,CLR,,0.00,WeatherDisplay:10.37,2013-05-16 02:55:00,
2013-05-15 23:00:00,60.3,52.3,29.47,West,270,0.7,1.7,75,0.00,CLR,,0.00,WeatherDisplay:10.37,2013-05-16 03:00:00,
2013-05-15 23:05:00,60.1,52.5,29.47,West,270,0.0,1.1,76,0.00,CLR,,0.00,WeatherDisplay:10.37,2013-05-16 03:05:00,
2013-05-15 23:10:00,59.9,52.3,29.48,West,270,0.0,0.0,76,0.00,CLR,,0.00,WeatherDisplay:10.37,2013-05-16 03:10:00,
2013-05-15 23:15:00,59.9,52.3,29.48,West,270,0.0,0.0,76,0.00,CLR,,0.00,WeatherDisplay:10.37,2013-05-16 03:15:00,
2013-05-15 23:21:00,59.7,52.5,29.48,West,270,0.7,1.7,77,0.00,CLR,,0.00,WeatherDisplay:10.37,2013-05-16 03:21:00,
2013-05-15 23:26:00,59.4,52.5,29.48,West,270,0.7,1.1,78,0.00,CLR,,0.00,WeatherDisplay:10.37,2013-05-16 03:26:00,
2013-05-15 23:31:00,59.0,52.1,29.48,West,270,0.0,0.0,78,0.00,CLR,,0.00,WeatherDisplay:10.37,2013-05-16 03:31:00,
2013-05-15 23:37:00,58.8,52.3,29.48,West,270,0.0,1.1,79,0.00,CLR,,0.00,WeatherDisplay:10.37,2013-05-16 03:37:00,
2013-05-15 23:42:00,58.6,52.5,29.48,West,270,0.0,1.1,80,0.00,CLR,,0.00,WeatherDisplay:10.37,2013-05-16 03:42:00,
2013-05-15 23:47:00,58.6,52.5,29.48,West,270,0.0,1.1,80,0.00,CLR,,0.00,WeatherDisplay:10.37,2013-05-16 03:47:00,
2013-05-15 23:52:00,58.6,52.5,29.48,West,270,0.0,1.1,80,0.00,CLR,,0.00,WeatherDisplay:10.37,2013-05-16 03:52:00,
2013-05-15 23:57:00,58.6,52.8,29.49,West,270,0.0,0.0,81,0.00,CLR,,0.00,WeatherDisplay:10.37,2013-05-16 03:57:00,